251  
ASUS45 KREV 210610  
RWRNV  
NEVADA REGIONAL WEATHER ROUNDUP  
NATIONAL WEATHER SERVICE RENO NV  
1100 PM PDT THU JUL 20 2017  
 
NOTE: "FAIR" INDICATES FEW OR NO CLOUDS BELOW 12,000 FEET WITH NO  
SIGNIFICANT WEATHER AND/OR S TO VISIBILITY
.  
 
NVZ001-003-004-210700-  
WESTERN NEVADA  
 
CITY SKY/WX TMP DP RH WIND PRES REMARKS
 
RENO CLEAR 75 36 24 NW14G25 30.13R  
6HR MIN TEMP: 75; 6HR MAX TEMP: 92;  
 
CARSON CITY FAIR 68 30 24 E3 30.16R  
MINDEN FAIR 55 36 47 MISG 30.16S  
FALLON PTCLDY 75 26 16 W12 30.06R  
6HR MIN TEMP: 74; 6HR MAX TEMP: 95;  
 
LOVELOCK CLEAR 78 26 14 NW13 30.05R  
6HR MIN TEMP: 73; 6HR MAX TEMP: 94;  
 
HAWTHORNE CLEAR 81 19 10 N14 30.07R  

 
 
NVZ002-CAZ072-073-210700-  
NORTHERN AND CENTRAL SIERRA  
 
CITY SKY/WX TMP DP RH WIND PRES REMARKS
 
S. LAKE TAHOE CLEAR 53 36 52 VRB3 30.27S  
6HR MIN TEMP: 53; 6HR MAX TEMP: 78;  
 
TRUCKEE CLEAR 48 34 57 CALM 30.27S  
SQUAW VLY 8000 N/A 52 19 28 NW1 N/A  
MAMMOTH LAKES FAIR 62 35 35 W8 30.30S  
6HR MIN TEMP: 62; 6HR MAX TEMP: 85;  
 
BRIDGEPORT FAIR 58 30 34 CALM 30.28R  

 
 
NVZ030-031-036-210700-  
NORTHERN NEVADA  
 
CITY SKY/WX TMP DP RH WIND PRES REMARKS
 
ELKO PTCLDY 75 16 10 CALM 30.10R  
6HR MIN TEMP: 74; 6HR MAX TEMP: 94;  
 
WINNEMUCCA NOT AVBL  
WENDOVER PTCLDY 77 56 48 SE6 30.00R  

 
 
NVZ035-037-210700-  
CENTRAL NEVADA  
 
CITY SKY/WX TMP DP RH WIND PRES REMARKS
 
ELY CLOUDY 64 61 90 SW6 30.19F  
6HR MIN TEMP: 64; 6HR MAX TEMP: 91; 6HR PCP: 0.21;  
 
EUREKA N/A 57 30 35 CALM 30.18R  
6HR MIN TEMP: 57; 6HR MAX TEMP: 89;  
 

 
 
NVZ013-014-210700-  
SOUTH CENTRAL NEVADA  
 
CITY SKY/WX TMP DP RH WIND PRES REMARKS
 
TONOPAH CLEAR 74 23 15 VRB5 30.14R  
6HR MIN TEMP: 74; 6HR MAX TEMP: 94;  
 

 
 
NVZ017-020-022-210700-  
SOUTHERN NEVADA  
 
CITY SKY/WX TMP DP RH WIND PRES REMARKS
 
LAS VEGAS MOCLDY 91 59 33 S3 29.88S  
6HR MIN TEMP: 91; 6HR MAX TEMP: 99;  
 
N. LAS VEGAS PTCLDY 91 52 26 CALM 29.87S  
6HR MIN TEMP: 91; 6HR MAX TEMP: 99;  
 
NELLIS AFB MOCLDY 93 56 28 W5 29.85S  
6HR MIN TEMP: 93; 6HR MAX TEMP: 101;  
 
HENDERSON PTCLDY N/A N/A N/A S7 29.92S  
MERCURY CLEAR 81 33 17 NE7 29.96F  
6HR MIN TEMP: 81; 6HR MAX TEMP: 99;  
 

 
 
 
CLICK HERE TO GO TO PREVIOUS BULLETINS.

The Nexlab NV Page Main Text Page